User: anonymous   Login
Location: Mat�lon
(46.2791°N, 7.1028°E)
Time: 01:51:29
(UTC+00:00)
Language:

CZ-2C R/B - Orbit

View from above orbital plane
View from above orbital plane
View from above satellite
View from above satellite

Ground track
Ground track

The orbit data is extracted from the following two-line orbital elements,

1 28480U 04046B   20334.62894557 +.00000066 +00000-0 +39622-4 0  9992
2 28480 098.0630 356.6434 0143118 095.9002 012.3540 14.25735043833951
Epoch (UTC): 29 November 2020 15:05:40
Eccentricity: 0.0143118
inclination: 98.0630°
perigee height: 703 km
apogee height: 909 km
right ascension of ascending node: 356.6434°
argument of perigee: 95.9002°
revolutions per day: 14.25735043
mean anomaly at epoch: 12.3540°
orbit number at epoch: 83395

The dashed part of the orbit path shows where the satellite is in the earth's shadow,  

DLR